TimeAKST,TemperatureF,Dew PointF,Humidity,Sea Level PressureIn,VisibilityMPH,Wind Direction,Wind SpeedMPH,Gust SpeedMPH,PrecipitationIn,Events,Conditions,WindDirDegrees,DateUTC
12:53 AM,-15.0,-20.0,78,30.11,10.0,Calm,Calm,-,N/A,,Overcast,0,2013-12-27 09:53:00
1:53 AM,-15.0,-20.0,78,30.12,9.0,Calm,Calm,-,N/A,,Overcast,0,2013-12-27 10:53:00
3:53 AM,-16.1,-20.9,79,30.14,10.0,Calm,Calm,-,N/A,,Overcast,0,2013-12-27 12:53:00
4:53 AM,-16.1,-22.0,74,30.15,9.0,Calm,Calm,-,N/A,,Overcast,0,2013-12-27 13:53:00
5:53 AM,-15.0,-20.0,78,30.17,9.0,Calm,Calm,-,N/A,,Overcast,0,2013-12-27 14:53:00
6:53 AM,-14.1,-20.0,75,30.18,9.0,Calm,Calm,-,N/A,,Overcast,0,2013-12-27 15:53:00
7:53 AM,-14.1,-18.9,79,30.19,9.0,Calm,Calm,-,N/A,,Overcast,0,2013-12-27 16:53:00
8:53 AM,-16.1,-20.9,79,30.22,10.0,Calm,Calm,-,N/A,,Mostly Cloudy,0,2013-12-27 17:53:00
9:53 AM,-18.9,-25.1,74,30.24,9.0,Calm,Calm,-,N/A,,Partly Cloudy,0,2013-12-27 18:53:00
10:53 AM,-18.9,-24.0,78,30.26,9.0,Calm,Calm,-,N/A,,Overcast,0,2013-12-27 19:53:00
11:53 AM,-18.9,-25.1,74,30.28,9.0,WNW,3.5,-,N/A,,Mostly Cloudy,290,2013-12-27 20:53:00
12:53 PM,-15.0,-20.9,75,30.30,9.0,Calm,Calm,-,N/A,,Overcast,0,2013-12-27 21:53:00
1:53 PM,-16.1,-20.9,79,30.31,9.0,Calm,Calm,-,N/A,,Overcast,0,2013-12-27 22:53:00
2:53 PM,-17.0,-20.9,82,30.33,9.0,Calm,Calm,-,N/A,,Overcast,0,2013-12-27 23:53:00
3:53 PM,-18.9,-25.1,74,30.35,10.0,Calm,Calm,-,N/A,,Clear,0,2013-12-28 00:53:00
4:53 PM,-18.9,-25.1,74,30.36,10.0,NW,3.5,-,N/A,,Clear,310,2013-12-28 01:53:00
5:53 PM,-17.0,-22.0,78,30.36,10.0,NW,3.5,-,N/A,,Partly Cloudy,310,2013-12-28 02:53:00
6:53 PM,-14.1,-18.9,79,30.36,10.0,Calm,Calm,-,N/A,,Partly Cloudy,0,2013-12-28 03:53:00
7:53 PM,-13.0,-18.0,78,30.37,6.0,Calm,Calm,-,0.00,Snow,Light Snow,0,2013-12-28 04:53:00
8:30 PM,-14.1,-18.9,79,30.13,6.0,Calm,Calm,-,0.00,,Haze,0,2013-12-28 05:30:00
8:42 PM,-14.1,-20.0,75,30.13,9.0,Calm,Calm,-,0.00,,Scattered Clouds,0,2013-12-28 05:42:00
8:53 PM,-14.1,-18.9,79,30.38,10.0,Calm,Calm,-,0.00,,Clear,0,2013-12-28 05:53:00
9:53 PM,-14.1,-18.9,79,30.39,8.0,Calm,Calm,-,N/A,,Overcast,0,2013-12-28 06:53:00
10:11 PM,-14.1,-18.0,82,30.14,6.0,Calm,Calm,-,N/A,,Overcast,0,2013-12-28 07:11:00
10:20 PM,-14.1,-18.0,82,30.15,6.0,Calm,Calm,-,N/A,,Overcast,0,2013-12-28 07:20:00
10:53 PM,-13.0,-18.0,78,30.40,6.0,Calm,Calm,-,0.00,Snow,Light Snow,0,2013-12-28 07:53:00
11:35 PM,-11.0,-17.0,75,30.14,2.5,Calm,Calm,-,0.00,Snow,Light Snow,0,2013-12-28 08:35:00
11:44 PM,-11.0,-17.0,75,30.14,3.0,Calm,Calm,-,0.00,Snow,Light Snow,0,2013-12-28 08:44:00
11:53 PM,-11.0,-17.0,75,30.39,4.0,Calm,Calm,-,0.00,Snow,Light Snow,0,2013-12-28 08:53:00